CST,Max TemperatureF,Mean TemperatureF,Min TemperatureF,Max Dew PointF,MeanDew PointF,Min DewpointF,Max Humidity, Mean Humidity, Min Humidity, Max Sea Level PressureIn, Mean Sea Level PressureIn, Min Sea Level PressureIn, Max VisibilityMiles, Mean VisibilityMiles, Min VisibilityMiles, Max Wind SpeedMPH, Mean Wind SpeedMPH, Max Gust SpeedMPH,PrecipitationIn, CloudCover, Events, WindDirDegrees
2011-2-1,18,16,15,18,15,12,100,93,86,30.20,29.97,29.51,6,2,0,46,23,53,0.01,8,Snow,46
2011-2-2,20,12,5,18,11,0,100,85,74,30.62,30.27,29.68,10,5,0,30,23,,0.00,5,Fog-Snow,318
2011-2-3,12,3,-6,1,-3,-10,83,74,56,30.66,30.58,30.44,10,10,10,16,9,,0.00,0,,231
2011-2-4,23,14,4,13,5,-1,92,70,50,30.43,30.22,29.94,10,10,10,18,13,,0.00,0,,217
2011-2-5,28,22,16,27,19,14,96,84,68,29.92,29.78,29.70,10,10,10,18,10,,0.00,5,,219
2011-2-6,32,29,26,30,27,25,100,94,89,30.06,29.90,29.78,10,4,1,16,13,,0.00,8,Snow,232
2011-2-7,29,22,13,25,21,9,93,85,72,30.21,30.08,30.00,10,8,5,20,11,,0.00,7,Snow,318
2011-2-8,11,5,-1,7,-2,-8,84,72,63,30.54,30.45,30.22,10,10,10,20,14,,0.00,0,,300
2011-2-9,11,6,0,1,-3,-6,76,70,61,30.51,30.40,30.33,10,10,10,14,10,,0.00,0,,267
2011-2-10,18,5,-8,9,0,-11,87,72,54,30.35,30.23,30.12,10,10,9,23,12,,0.00,0,,227
2011-2-11,30,22,15,23,14,5,78,68,62,30.11,30.07,30.01,10,10,10,21,13,,0.00,5,,227
2011-2-12,37,30,23,30,27,21,96,82,70,30.24,30.13,30.01,10,9,3,21,14,,0.00,2,,226
2011-2-13,43,36,30,32,29,25,82,70,54,29.99,29.85,29.70,10,10,10,25,17,,0.00,0,,221
2011-2-14,41,36,28,32,31,27,96,76,66,30.39,30.14,29.81,10,10,5,29,18,39,0.00,3,,298
2011-2-15,36,32,28,31,28,24,96,81,70,30.38,30.25,30.07,10,9,5,22,13,,0.00,1,,155
2011-2-16,53,44,34,48,41,31,93,84,74,30.07,29.98,29.83,10,9,4,22,11,,0.00,2,,178
2011-2-17,59,52,46,54,49,39,93,86,63,29.88,29.75,29.60,10,10,7,32,21,,0.00,5,,201
2011-2-18,52,43,34,34,29,27,76,60,38,30.35,30.19,29.90,10,10,10,20,11,,0.00,0,,291
2011-2-19,45,38,30,31,27,23,88,72,52,30.45,30.38,30.26,10,10,10,14,9,,0.00,1,,58
2011-2-20,57,44,32,52,37,27,93,83,70,30.21,29.92,29.57,10,8,2,28,18,,0.38,6,,160
2011-2-21,55,42,29,53,36,23,100,95,78,30.00,29.74,29.58,10,4,0,20,11,,0.08,8,Fog-Rain,7
2011-2-22,31,28,26,28,24,21,93,85,78,30.32,30.20,29.96,10,9,3,15,11,,0.00,8,Snow,348
2011-2-23,37,32,26,36,30,22,100,86,76,30.32,30.15,29.97,10,8,2,21,12,,0.03,7,Rain,163
2011-2-24,37,34,30,36,30,28,93,88,81,30.12,29.96,29.79,9,5,1,30,16,,0.00,7,,32
2011-2-25,34,30,27,29,27,24,100,87,70,30.24,30.04,29.83,10,5,0,23,16,,0.00,8,Fog,349
2011-2-26,34,30,26,34,29,25,100,94,86,30.20,30.00,29.83,7,3,0,12,8,,0.00,8,Fog-Snow,208
2011-2-27,46,38,30,45,36,30,100,98,87,29.91,29.72,29.49,10,2,0,28,10,,0.65,8,Fog-Rain-Thunderstorm,34
2011-2-28,36,31,25,33,27,23,100,86,68,30.35,30.05,29.60,10,8,3,24,15,,0.15,5,,352